This is the latest recevied weather packets stored in our database for station/object WP3OF-5. If no packets are shown the sender has not sent any weather packets the latest 10 day(s).
| Time | Temp. | Humidity | Pressure | Rain* | Wind** | Luminosity | Snow |
|---|---|---|---|---|---|---|---|
| 1778000494 | 30.56° C | 69% | 1017.8 hPa | 0 mm | - | - | - |
| 1778000190 | 31.11° C | 69% | 1017.5 hPa | 0 mm | - | - | - |
| 1777999886 | 31.67° C | 67% | 1017.5 hPa | 0 mm | - | - | - |
| 1777999581 | 31.11° C | 69% | 1017.4 hPa | 0 mm | - | - | - |
| 1777999279 | 30.56° C | 70% | 1017.7 hPa | 0 mm | - | - | - |
| 1777998977 | 31.11° C | 69% | 1017.7 hPa | 0 mm | - | - | - |
| 1777998675 | 31.67° C | 65% | 1017.6 hPa | 0 mm | - | - | - |
| 1777998372 | 31.67° C | 59% | 1017.7 hPa | 0 mm | - | - | - |
| 1777998070 | 31.11° C | 59% | 1017.8 hPa | 0 mm | - | - | - |
| 1777997766 | 31.67° C | 55% | 1017.7 hPa | 0 mm | - | - | - |
| 1777997464 | 32.78° C | 51% | 1017.9 hPa | 0 mm | - | - | - |
| 1777997161 | 32.22° C | 56% | 1017.7 hPa | 0 mm | - | - | - |
| 1777996858 | 31.11° C | 55% | 1018 hPa | 0 mm | - | - | - |
| 1777996555 | 31.67° C | 56% | 1017.8 hPa | 0 mm | - | - | - |
| 1777996251 | 31.11° C | 59% | 1017.9 hPa | 0 mm | - | - | - |
| 1777995947 | 31.11° C | 55% | 1017.5 hPa | 0 mm | - | - | - |
| 1777995643 | 31.11° C | 57% | 1017.7 hPa | 0 mm | - | - | - |
| 1777995341 | 31.67° C | 55% | 1017.8 hPa | 0 mm | - | - | - |
| 1777995038 | 31.67° C | 55% | 1017.8 hPa | 0 mm | - | - | - |
| 1777994735 | 31.67° C | 57% | 1017.4 hPa | 0 mm | - | - | - |
| 1777994431 | 31.67° C | 59% | 1017.7 hPa | 0 mm | - | - | - |
| 1777994131 | 31.11° C | 56% | 1017.5 hPa | 0 mm | - | - | - |
| 1777993829 | 31.11° C | 58% | 1017.6 hPa | 0 mm | - | - | - |
| 1777993525 | 30.56° C | 58% | 1017.6 hPa | 0 mm | - | - | - |
| 1777993221 | 30.56° C | 60% | 1017.5 hPa | 0 mm | - | - | - |
* Rain latest hour (hover to see other rain measurements)
** Current wind speed in m/s (hover to see current wind gust speed)